Regional Weather Roundup
Issued by NWS

Home | Current Version | Previous Version | Graphics & Text | Print | Product List | Glossary On
Versions: 1 2 3 4 5 6 7 8 9 10 11 12 13 14 15 16 17 18 19 20 21 22 23 24 25 26 27 28 29 30 31 32 33 34 35 36 37 38 39 40 41 42 43 44 45 46 47 48 49 50
000
ASUS43 KMKX 172300
RWRWI

WISCONSIN REGIONAL WEATHER ROUNDUP
NATIONAL WEATHER SERVICE MILWAUKEE/SULLIVAN WI
600 PM CDT FRI APR 17 2015

NOTE: "FAIR" INDICATES FEW OR NO CLOUDS BELOW 12,000 FEET WITH NO
SIGNIFICANT WEATHER AND/OR OBSTRUCTIONS TO VISIBILITY.

WIZ001-002-006>008-014>016-023>028-180000-
NORTHWEST WISCONSIN

CITY           SKY/WX    TMP DP  RH WIND       PRES   REMARKS
SUPERIOR ARPT  SUNNY     73  26  17 W14G21    29.96S
ASHLAND        SUNNY     72  28  19 CALM      29.96F
HAYWARD        SUNNY     72  20  14 W7G17     29.98S
SIREN          SUNNY     72  20  13 W8G20     30.00S
CUMBERLAND     SUNNY     70  27  19 W9        30.00S
RICE LAKE      SUNNY     71  28  20 W8        30.01S
CHETEK         SUNNY     72  33  24 W8        30.00S
LADYSMITH      SUNNY     73  33  22 W10       30.00S
EAU CLAIRE     NOT AVBL
MENOMONIE      SUNNY     74  35  23 NW10      30.00S
NEW RICHMOND   SUNNY     73  22  14 NW5       30.02S
OSCEOLA        SUNNY     73  31  21 W6        30.04S
$$

WIZ003>005-009-010-017-018-180000-
NORTH CENTRAL WISCONSIN

CITY           SKY/WX    TMP DP  RH WIND       PRES   REMARKS
MANITOWISH WTR SUNNY     70  24  17 W8        29.97S
ARBOR VITAE    SUNNY     72  28  19 W10       29.96F
WOODRUFF       SUNNY     72  28  19 W10       29.96F
RHINELANDER    SUNNY     72  31  22 W12       29.97S
EAGLE RIVER    SUNNY     71  27  19 W9        29.96S
LAND O LAKES   SUNNY     71  20  14 W6        29.97S
PHILLIPS       SUNNY     71  32  23 NW9       29.97S
TOMAHAWK       SUNNY     73  32  22 CALM      29.97S
MEDFORD        SUNNY     71  40  32 W13G18    29.99S
MERRILL        SUNNY     74  39  28 W10       29.96S
$$

WIZ029-030-035-036-043>047-180000-
CENTRAL WISCONSIN

CITY           SKY/WX    TMP DP  RH WIND       PRES   REMARKS
WAUSAU         MOSUNNY   73  38  27 W14       29.96S
MOSINEE        SUNNY     72  39  30 W10       29.99S
MARSHFIELD     MOSUNNY   74  41  30 W12       29.98S
STEVENS POINT  MOSUNNY   73  42  32 W6        29.98S
WAUPACA        MOSUNNY   76  37  23 W6        29.96S
WAUTOMA        NOT AVBL
WISC RAPIDS    MOSUNNY   76  38  25 NW8       29.98S
CAMP DOUGLAS   NOT AVBL
$$

WIZ011>013-019>022-031-037>040-048>050-180000-
NORTHEAST WISCONSIN

CITY           SKY/WX    TMP DP  RH WIND       PRES   REMARKS
ANTIGO         MOSUNNY   72  41  33 W10       29.96F
SHAWANO        MOSUNNY   73  44  34 S5        29.94F
OCONTO         SUNNY     63  41  43 SE10      29.97F
STURGEON BAY   SUNNY     57  39  51 SE13      30.01F
GREEN BAY      SUNNY     69  47  45 SE13      29.96F
MANITOWOC      NOT AVBL
APPLETON       MOSUNNY   72  39  30 SE10      29.97F
CLINTONVILLE   MOSUNNY   73  39  29 SW6       29.95S
OSHKOSH        MOSUNNY   71  47  42 SE8       29.97S
$$

WIZ032>034-041-042-053>061-180000-
SOUTHWEST WISCONSIN

CITY           SKY/WX    TMP DP  RH WIND       PRES   REMARKS
LA CROSSE      SUNNY     79  43  27 NW7       29.97F
SPARTA         SUNNY     77  38  25 W8        29.99S
VIROQUA        MOSUNNY   75  40  28 W9        30.00F
BOSCOBEL       PTSUNNY   79  44  28 W8        29.98S
PRAIRIE DU CHI MOSUNNY   77  39  25 W8        29.97F
PLATTEVILLE    PTSUNNY   76  44  31 SW7       29.99F
$$

WIZ056-057-062-063-064-067-068-180000-
SOUTH CENTRAL WISCONSIN

CITY           SKY/WX    TMP DP  RH WIND       PRES   REMARKS
REEDSBURG      MOSUNNY   76  45  33 NW10      29.97S
BARABOO/DELLS  SUNNY     76  40  27 SW6       29.98S
LONE ROCK      NOT AVBL
MINERAL POINT  MOSUNNY   79  39  24 W8        30.00S
MADISON        MOSUNNY   77  42  28 VRB6      29.97S
MIDDLETON      PTSUNNY   79  37  21 NW8       29.98F
WATERTOWN      PTSUNNY   75  46  36 NW7       29.98S
MONROE         PTSUNNY   75  45  33 W9        29.99S
JANESVILLE     PTSUNNY   75  43  31 W5        29.98S
$$

WIZ051-052-058>065-066-070>072-180000-
SOUTHEAST WISCONSIN

CITY           SKY/WX    TMP DP  RH WIND       PRES   REMARKS
MILWAUKEE      PTSUNNY   59  40  49 NE7       30.01F
WAUKESHA       MOSUNNY   68  41  37 E12       30.01S
MILWAUKEE/TIMM PTSUNNY   64  32  29 SE7       30.01F
RACINE         SUNNY     60  43  53 SE6       30.03S
BURLINGTON     PTSUNNY   68  44  41 E8        29.99S
KENOSHA        CLOUDY    67  44  43 SE8       30.00S
FOND DU LAC    MOSUNNY   70  46  42 SE12      29.98S
SHEBOYGAN      MOSUNNY   60  43  53 SE5       30.01S
WEST BEND      PTSUNNY   64  36  34 SE5       30.00F
JUNEAU         PTSUNNY   73  44  36 CALM      29.99S
$$

LSZ147-162-180000-
LAKE SUPERIOR

STATION/POSITION TIME  TEMP    WIND        PRES    WAVE
                       AIR SEA DIR/SP/G            HT/PER
                 (UTC) (F)     (DEG/KT/KT) (MB)    (FT/S)
DEVILS ISLAND    2200   63     210/ 12/ 14 1014.0F
PORT WING        2240   69     250/ 10/ 13 1014.2F
SAXON HARBOR     2240   59        CALM     1014.6F
$$

LMZ867-665-643>646-180000-
LAKE MICHIGAN

STATION/POSITION TIME  TEMP    WIND        PRES    WAVE
                       AIR SEA DIR/SP/G            HT/PER
                 (UTC) (F)     (DEG/KT/KT) (MB)    (FT/S)
CHAMBERS ISLAND  2200   60     110/  8/ 12 1015.6F
NORTHPORT PIER   2200   55     150/  8/ 13 1015.9F
SISTER BAY       2247   59     140/ 10/ 13   N/A
KEWAUNEE LAKESHO 2200   51     140/  2/  4 1015.3F
SHEBOYGAN LAKESH 2200   42      50/  3/  5 1017.2F
PORT WASHINGTON  2200   47      50/  3/  4 1017.3S
MILWAUKEE LAKESH 2200   47      40/  7/  7   N/A
KENOSHA   LAKESH 2200   55     150/  3/  6 1015.9S
$$

TC  - TEMPERATURE IN CELSIUS
VSB - VISIBILITY IN STATUTE MILES
WCI - WIND CHILL INDEX
HX  - HEAT INDEX




USA.gov is the U.S. government's official web portal to all federal, state and local government web resources and services.